TimeEST,TemperatureF,Dew PointF,Humidity,Sea Level PressureIn,VisibilityMPH,Wind Direction,Wind SpeedMPH,Gust SpeedMPH,PrecipitationIn,Events,Conditions,WindDirDegrees,DateUTC
12:13 AM,44.6,44.6,100,30.15,10.0,Calm,Calm,-,N/A,,Overcast,0,2012-11-21 05:13:00
12:33 AM,44.1,44.1,100,30.15,10.0,Calm,Calm,-,N/A,,Overcast,0,2012-11-21 05:33:00
12:53 AM,44.1,44.1,100,30.15,10.0,Calm,Calm,-,N/A,,Overcast,0,2012-11-21 05:53:00
1:13 AM,44.6,44.6,100,30.15,10.0,Calm,Calm,-,N/A,,Overcast,0,2012-11-21 06:13:00
1:33 AM,41.9,41.9,100,30.15,7.0,Calm,Calm,-,N/A,,Mostly Cloudy,0,2012-11-21 06:33:00
1:53 AM,41.0,41.0,100,30.16,7.0,Calm,Calm,-,N/A,,Mostly Cloudy,0,2012-11-21 06:53:00
2:13 AM,40.6,40.6,100,30.16,5.0,Calm,Calm,-,N/A,,Overcast,0,2012-11-21 07:13:00
2:33 AM,40.1,40.1,100,30.17,5.0,Calm,Calm,-,N/A,,Overcast,0,2012-11-21 07:33:00
2:53 AM,38.8,38.8,100,30.17,4.0,Calm,Calm,-,N/A,,Mostly Cloudy,0,2012-11-21 07:53:00
3:13 AM,38.3,38.3,100,30.17,2.0,Calm,Calm,-,N/A,,Scattered Clouds,0,2012-11-21 08:13:00
3:34 AM,36.5,36.5,100,30.17,0.5,Calm,Calm,-,N/A,Fog,Fog,0,2012-11-21 08:34:00
3:53 AM,35.4,35.4,100,30.18,0.2,Calm,Calm,-,N/A,Fog,Fog,0,2012-11-21 08:53:00
4:13 AM,35.2,35.2,100,30.18,0.5,Calm,Calm,-,N/A,Fog,Fog,0,2012-11-21 09:13:00
4:34 AM,34.9,34.9,100,30.18,0.2,Calm,Calm,-,N/A,Fog,Fog,0,2012-11-21 09:34:00
4:53 AM,32.9,32.9,100,30.18,0.5,Calm,Calm,-,N/A,Fog,Fog,0,2012-11-21 09:53:00
5:13 AM,32.7,32.7,100,30.18,2.5,Calm,Calm,-,N/A,,Scattered Clouds,0,2012-11-21 10:13:00
5:33 AM,31.8,31.8,100,30.18,3.0,SE,3.5,-,N/A,,Clear,130,2012-11-21 10:33:00
5:53 AM,32.5,32.5,100,30.18,4.0,Calm,Calm,-,N/A,,Clear,0,2012-11-21 10:53:00
6:13 AM,32.5,32.5,100,30.18,2.5,Calm,Calm,-,N/A,,Clear,0,2012-11-21 11:13:00
6:33 AM,31.3,31.3,100,30.20,2.5,Calm,Calm,-,N/A,,Clear,0,2012-11-21 11:33:00
6:53 AM,31.3,31.3,100,30.20,3.0,Calm,Calm,-,N/A,,Clear,0,2012-11-21 11:53:00
7:13 AM,31.1,31.1,100,30.20,4.0,Calm,Calm,-,N/A,,Scattered Clouds,0,2012-11-21 12:13:00
7:33 AM,31.6,31.6,100,30.20,2.5,Calm,Calm,-,N/A,,Clear,0,2012-11-21 12:33:00
7:53 AM,30.9,30.9,100,30.20,2.5,Calm,Calm,-,N/A,,Clear,0,2012-11-21 12:53:00
8:13 AM,30.9,30.9,100,30.21,2.5,Calm,Calm,-,N/A,,Clear,0,2012-11-21 13:13:00
8:33 AM,32.2,32.2,100,30.21,2.5,Calm,Calm,-,N/A,,Clear,0,2012-11-21 13:33:00
8:53 AM,34.7,34.7,100,30.22,2.5,Calm,Calm,-,N/A,,Clear,0,2012-11-21 13:53:00
9:13 AM,37.6,37.6,100,30.22,2.5,Calm,Calm,-,N/A,,Clear,0,2012-11-21 14:13:00
9:33 AM,40.8,40.8,100,30.22,4.0,Calm,Calm,-,N/A,,Clear,0,2012-11-21 14:33:00
9:53 AM,44.4,44.1,99,30.22,5.0,Calm,Calm,-,N/A,,Clear,0,2012-11-21 14:53:00
10:13 AM,48.0,44.4,87,30.22,7.0,Calm,Calm,-,N/A,,Clear,0,2012-11-21 15:13:00
10:33 AM,50.4,42.4,74,30.22,7.0,Calm,Calm,-,N/A,,Clear,0,2012-11-21 15:33:00
10:53 AM,51.6,43.3,73,30.23,7.0,Calm,Calm,-,N/A,,Clear,0,2012-11-21 15:53:00
11:13 AM,53.2,43.2,69,30.22,10.0,WSW,3.5,-,N/A,,Clear,250,2012-11-21 16:13:00
11:33 AM,54.5,42.4,64,30.22,10.0,Calm,Calm,-,N/A,,Clear,0,2012-11-21 16:33:00
11:53 AM,55.6,41.4,59,30.21,10.0,SW,5.8,-,N/A,,Clear,220,2012-11-21 16:53:00
12:13 PM,57.0,41.4,56,30.20,10.0,WSW,5.8,-,N/A,,Clear,240,2012-11-21 17:13:00
12:33 PM,57.4,41.0,54,30.19,10.0,SW,8.1,-,N/A,,Clear,220,2012-11-21 17:33:00
12:53 PM,57.6,41.5,55,30.19,10.0,West,5.8,-,N/A,,Clear,280,2012-11-21 17:53:00
1:13 PM,57.9,41.4,54,30.18,10.0,WSW,6.9,-,N/A,,Clear,250,2012-11-21 18:13:00
1:33 PM,57.9,40.8,53,30.18,10.0,WSW,10.4,-,N/A,,Clear,250,2012-11-21 18:33:00
1:53 PM,57.6,41.2,54,30.18,10.0,SW,9.2,-,N/A,,Clear,230,2012-11-21 18:53:00
2:14 PM,58.1,41.4,54,30.18,10.0,West,8.1,-,N/A,,Clear,260,2012-11-21 19:14:00
2:33 PM,57.6,41.2,54,30.17,10.0,SW,8.1,-,N/A,,Clear,230,2012-11-21 19:33:00
2:53 PM,57.7,41.0,54,30.16,10.0,SW,5.8,-,N/A,,Clear,220,2012-11-21 19:53:00
3:14 PM,57.2,41.0,55,30.16,10.0,SW,5.8,-,N/A,,Clear,220,2012-11-21 20:14:00
3:33 PM,57.2,41.0,55,30.15,10.0,SW,5.8,-,N/A,,Clear,230,2012-11-21 20:33:00
3:53 PM,57.2,41.2,55,30.15,10.0,SW,5.8,-,N/A,,Clear,220,2012-11-21 20:53:00
4:13 PM,56.1,41.2,57,30.15,10.0,SW,6.9,-,N/A,,Clear,230,2012-11-21 21:13:00
4:33 PM,53.6,41.0,62,30.15,10.0,SSW,4.6,-,N/A,,Clear,210,2012-11-21 21:33:00
4:58 PM,50.9,40.3,67,30.15,10.0,Calm,Calm,-,N/A,,Clear,0,2012-11-21 21:58:00
5:13 PM,49.5,40.1,70,30.15,10.0,Calm,Calm,-,N/A,,Clear,0,2012-11-21 22:13:00
5:33 PM,47.1,40.3,77,30.15,10.0,Calm,Calm,-,N/A,,Clear,0,2012-11-21 22:33:00
5:53 PM,46.4,40.1,79,30.15,10.0,SSE,3.5,-,N/A,,Clear,160,2012-11-21 22:53:00
6:13 PM,41.4,41.0,99,30.15,10.0,Calm,Calm,-,N/A,,Clear,0,2012-11-21 23:13:00
6:33 PM,42.6,38.8,86,30.16,10.0,Calm,Calm,-,N/A,,Clear,0,2012-11-21 23:33:00
6:53 PM,43.3,39.6,87,30.15,10.0,Calm,Calm,-,N/A,,Clear,0,2012-11-21 23:53:00
7:13 PM,39.9,39.9,100,30.15,10.0,Calm,Calm,-,N/A,,Clear,0,2012-11-22 00:13:00
7:33 PM,39.2,39.2,100,30.15,10.0,Calm,Calm,-,N/A,,Clear,0,2012-11-22 00:33:00
7:53 PM,38.5,38.5,100,30.15,10.0,Calm,Calm,-,N/A,,Clear,0,2012-11-22 00:53:00
8:13 PM,38.1,38.1,100,30.15,7.0,Calm,Calm,-,N/A,,Clear,0,2012-11-22 01:13:00
8:33 PM,37.0,37.0,100,30.15,7.0,SE,3.5,-,N/A,,Clear,140,2012-11-22 01:33:00
8:53 PM,34.5,34.5,100,30.15,7.0,SSE,3.5,-,N/A,,Clear,150,2012-11-22 01:53:00
9:13 PM,35.2,35.2,100,30.14,7.0,Calm,Calm,-,N/A,,Clear,0,2012-11-22 02:13:00
9:33 PM,36.5,36.5,100,30.15,7.0,Calm,Calm,-,N/A,,Clear,0,2012-11-22 02:33:00
9:53 PM,35.2,35.2,100,30.15,5.0,Calm,Calm,-,N/A,,Clear,0,2012-11-22 02:53:00
10:13 PM,34.9,34.9,100,30.15,4.0,Calm,Calm,-,N/A,,Clear,0,2012-11-22 03:13:00
10:33 PM,33.1,33.1,100,30.15,5.0,Calm,Calm,-,N/A,,Clear,0,2012-11-22 03:33:00
10:53 PM,34.7,34.7,100,30.15,5.0,Calm,Calm,-,N/A,,Clear,0,2012-11-22 03:53:00
11:13 PM,33.6,33.6,100,30.14,3.0,Calm,Calm,-,N/A,,Clear,0,2012-11-22 04:13:00
11:33 PM,32.4,32.4,100,30.14,3.0,Calm,Calm,-,N/A,,Clear,0,2012-11-22 04:33:00
11:54 PM,32.7,32.7,100,30.14,3.0,Calm,Calm,-,N/A,,Clear,0,2012-11-22 04:54:00